Location: Unspecified
(0.0000°N, 0.0000°E)
Time: 19:49:34
(UTC+00:00)

CZ-3C DEB - Pass Details

Date: 11 March 2026
Orbit: 440 x 28021 km, 21.3° (Epoch: 10 April)

Event Time Altitude Azimuth Distance (km) Brightness Sun altitude
Rises 14:46:18 0° 282° (WNW) 7,553 ? 50.8°
Reaches altitude 10° 14:49:46 10° 287° (WNW) 7,548 ? 49.9°
Maximum altitude 21:18:55 86° 39° (NE) 15,521 ? -47.1°
Enters shadow 21:50:17 67° 113° (ESE) 9,877 ? -54.9°
